Terug naar catalogus

CZ-3B DEB

ActiefGTO
NORAD 40814·DEBRIS·🇨🇳 China

Gelanceerd Sep 4, 2010 vanaf Xichang Satellite Launch Center

Loading…

TLE

VerouderdSource: Space-Track

Epoch: Sep 8, 2026, 17:45 UTC

1 40814U 10042X   26251.73969502 -.00000153  00000-0  12275-2 0  9990
2 40814  26.3442 134.6074 7311322 197.8872 107.7547  1.90401460 82361

Volg CZ-3B DEB in realtime met AllMySat

Download on the App Store